66P/du Toit (2018)

Japanese version
Home page
Updated on June 11, 2016

---------------------------------------------------------------------

* Profile

* Orbital Elements

Epoch 2018 May 2.0 TT = JDT 2458240.5
T 2018 May 19.14383 TT                                  Kobayashi
q   1.2901098            (2000.0)            P               Q
n   0.06616919     Peri.  257.21286     +0.13916714     +0.98304300
a   6.0538572      Node    21.89623     -0.73799331     +0.18336132
e   0.7868946      Incl.   18.67498     -0.66030173     +0.00225330
P  14.9
From 138 observations 1944 May 30-2003 Sept. 8, mean residual 0".7.
     Nongravitational parameters A1 = +0.02, A2 = -0.0111.

* Finding Charts

* Magnitudes Graph

        m1 = 13.0 + 5 log d + 15.0 log r  [   ,-50]  (             - 2018 Mar. 30)
        m1 =  8.7 + 5 log d + 30   log r  [-50, 50]  (2018 Mar. 30 - 2018 July  8)
        m1 = 13.0 + 5 log d + 15.0 log r  [ 50,   ]  (2018 July  8 -             )

---------------------------------------------------------------------

The orbital elements are published on M.P.E.C. 2015-M77.
The charts are made with StellaNavigator Ver.8 (AstroArts).
The magnitudes graphs are made with Comet for Windows.

---------------------------------------------------------------------

Copyright(C) Seiichi Yoshida (comet@aerith.net). All rights reserved.